| time (UTC) | temp C | wind direction | speed KPH | gust KPH | rain 1hr cm | rain 24hr cm | rain mn cm | humidity % | barometer mb |
| 20260508145015 | 9 | 80 | 0.0 | 1.6 | 0.00 | 0.15 | 0.00 | 78 | 1021.9 |
| 20260508144036 | 8 | 99 | 0.0 | 1.6 | 0.00 | 0.15 | 0.00 | 80 | 1022.1 |
| 20260508143017 | 8 | 144 | 1.6 | 4.8 | 0.00 | 0.15 | 0.00 | 81 | 1022.0 |
| 20260508142017 | 8 | 232 | 0.0 | 3.2 | 0.00 | 0.15 | 0.00 | 82 | 1022.2 |
| 20260508141017 | 7 | 222 | 0.0 | 1.6 | 0.00 | 0.15 | 0.00 | 82 | 1022.2 |
| 20260508140015 | 7 | 257 | 0.0 | 3.2 | 0.00 | 0.15 | 0.00 | 83 | 1022.3 |
| 20260508135015 | 7 | 261 | 0.0 | 1.6 | 0.00 | 0.15 | 0.00 | 85 | 1022.4 |
| 20260508134016 | 6 | 251 | 0.0 | 1.6 | 0.00 | 0.15 | 0.00 | 88 | 1022.4 |
| 20260508133016 | 6 | 277 | 0.0 | 1.6 | 0.00 | 0.15 | 0.00 | 90 | 1022.3 |
| 20260508132016 | 5 | 0.0 | 0.0 | 0.00 | 0.15 | 0.00 | 91 | 1022.1 | |
| 20260508131017 | 5 | 0.0 | 0.0 | 0.00 | 0.15 | 0.00 | 91 | 1022.1 | |
| 20260508130015 | 4 | 0.0 | 0.0 | 0.00 | 0.15 | 0.00 | 91 | 1022.1 | |
| 20260508125035 | 3 | 0.0 | 0.0 | 0.00 | 0.15 | 0.00 | 91 | 1021.9 | |
| 20260508124015 | 3 | 0.0 | 0.0 | 0.00 | 0.15 | 0.00 | 91 | 1021.7 | |
| 20260508123016 | 3 | 0.0 | 0.0 | 0.00 | 0.15 | 0.00 | 90 | 1021.1 | |
| 20260508122016 | 3 | 0.0 | 0.0 | 0.00 | 0.15 | 0.00 | 90 | 1020.9 | |
| 20260508121016 | 3 | 0.0 | 0.0 | 0.00 | 0.15 | 0.00 | 89 | 1020.8 | |
| 20260508120017 | 3 | 0.0 | 0.0 | 0.00 | 0.15 | 0.00 | 89 | 1020.4 | |
| 20260508115015 | 3 | 0.0 | 0.0 | 0.00 | 0.15 | 0.00 | 89 | 1020.3 | |
| 20260508114015 | 3 | 0.0 | 0.0 | 0.00 | 0.15 | 0.00 | 88 | 1020.2 | |
| 20260508113015 | 3 | 0.0 | 0.0 | 0.00 | 0.15 | 0.00 | 88 | 1020.2 | |
| 20260508112016 | 4 | 0.0 | 0.0 | 0.00 | 0.15 | 0.00 | 87 | 1020.2 | |
| 20260508111016 | 4 | 0.0 | 0.0 | 0.00 | 0.15 | 0.00 | 87 | 1020.3 | |
| 20260508110016 | 4 | 352 | 0.0 | 1.6 | 0.00 | 0.15 | 0.00 | 86 | 1020.4 |
| 20260508105017 | 4 | 134 | 0.0 | 4.8 | 0.00 | 0.15 | 0.00 | 86 | 1019.4 |
| 20260508104035 | 4 | 139 | 1.6 | 6.4 | 0.00 | 0.15 | 0.00 | 86 | 1019.2 |
| 20260508103015 | 4 | 126 | 3.2 | 4.8 | 0.00 | 0.15 | 0.00 | 86 | 1019.3 |
| 20260508102035 | 5 | 131 | 1.6 | 3.2 | 0.00 | 0.15 | 0.00 | 86 | 1019.3 |
| 20260508101016 | 5 | 144 | 0.0 | 1.6 | 0.00 | 0.15 | 0.00 | 85 | 1019.4 |
| 20260508100016 | 5 | 0.0 | 0.0 | 0.00 | 0.15 | 0.00 | 85 | 1019.4 | |
| 20260508095016 | 5 | 0.0 | 0.0 | 0.00 | 0.15 | 0.00 | 85 | 1019.2 | |
| 20260508094017 | 5 | 0.0 | 0.0 | 0.00 | 0.15 | 0.00 | 84 | 1019.3 | |
| 20260508093055 | 6 | 0.0 | 0.0 | 0.00 | 0.15 | 0.00 | 83 | 1019.5 | |
| 20260508092015 | 6 | 144 | 0.0 | 1.6 | 0.00 | 0.15 | 0.00 | 83 | 1019.6 |
| 20260508091036 | 6 | 144 | 0.0 | 1.6 | 0.00 | 0.15 | 0.00 | 84 | 1019.5 |
| 20260508090016 | 6 | 144 | 0.0 | 1.6 | 0.00 | 0.15 | 0.00 | 83 | 1019.5 |
| 20260508085016 | 6 | 0.0 | 0.0 | 0.00 | 0.15 | 0.00 | 82 | 1019.6 | |
| 20260508084017 | 6 | 144 | 0.0 | 1.6 | 0.00 | 0.15 | 0.00 | 82 | 1019.7 |
| 20260508083017 | 6 | 0.0 | 0.0 | 0.00 | 0.15 | 0.00 | 81 | 1019.9 | |
| 20260508082015 | 7 | 0.0 | 0.0 | 0.00 | 0.15 | 0.00 | 79 | 1019.9 | |
| 20260508081015 | 7 | 0.0 | 0.0 | 0.00 | 0.15 | 0.00 | 78 | 1020.0 | |
| 20260508080016 | 7 | 144 | 0.0 | 1.6 | 0.00 | 0.15 | 0.00 | 77 | 1019.8 |
| 20260508075016 | 7 | 138 | 1.6 | 3.2 | 0.00 | 0.15 | 0.00 | 78 | 1019.9 |
| 20260508074016 | 8 | 109 | 0.0 | 1.6 | 0.00 | 0.15 | 0.00 | 77 | 1020.2 |
| 20260508073016 | 8 | 0.0 | 0.0 | 0.00 | 0.15 | 0.00 | 76 | 1020.3 | |
| 20260508072017 | 8 | 0.0 | 0.0 | 0.00 | 0.15 | 0.00 | 74 | 1020.0 | |
| 20260508071015 | 8 | 0.0 | 0.0 | 0.00 | 0.15 | 0.00 | 74 | 1020.0 | |
| 20260508070015 | 9 | 109 | 0.0 | 1.6 | 0.00 | 0.15 | 0.00 | 73 | 1019.9 |
| 20260508065015 | 9 | 121 | 0.0 | 1.6 | 0.00 | 0.15 | 0.00 | 73 | 1020.2 |
| 20260508064016 | 9 | 123 | 0.0 | 1.6 | 0.00 | 0.15 | 0.00 | 72 | 1020.4 |
| 20260508063016 | 10 | 124 | 0.0 | 1.6 | 0.00 | 0.15 | 0.00 | 71 | 1021.1 |
| 20260508062017 | 10 | 133 | 1.6 | 3.2 | 0.00 | 0.15 | 0.00 | 70 | 1020.0 |
| 20260508061017 | 10 | 135 | 0.0 | 3.2 | 0.00 | 0.15 | 0.00 | 69 | 1019.9 |
| 20260508060015 | 10 | 135 | 0.0 | 1.6 | 0.00 | 0.15 | 0.00 | 68 | 1019.8 |
| 20260508055015 | 10 | 146 | 0.0 | 3.2 | 0.00 | 0.15 | 0.15 | 68 | 1019.7 |
| 20260508054016 | 10 | 113 | 0.0 | 1.6 | 0.00 | 0.15 | 0.15 | 67 | 1019.6 |
| 20260508053016 | 11 | 96 | 1.6 | 4.8 | 0.00 | 0.15 | 0.15 | 66 | 1019.7 |
| 20260508052016 | 11 | 106 | 1.6 | 4.8 | 0.00 | 0.15 | 0.15 | 63 | 1020.0 |
| 20260508051017 | 11 | 206 | 0.0 | 1.6 | 0.00 | 0.15 | 0.15 | 61 | 1020.2 |
| 20260508050017 | 11 | 322 | 0.0 | 1.6 | 0.00 | 0.15 | 0.15 | 59 | 1019.6 |
| 20260508045015 | 12 | 146 | 0.0 | 1.6 | 0.00 | 0.15 | 0.15 | 56 | 1019.2 |
| 20260508044015 | 12 | 95 | 0.0 | 3.2 | 0.00 | 0.15 | 0.15 | 55 | 1019.0 |
| 20260508043016 | 12 | 232 | 0.0 | 1.6 | 0.00 | 0.15 | 0.15 | 53 | 1019.2 |
| 20260508042016 | 12 | 0.0 | 0.0 | 0.00 | 0.15 | 0.15 | 52 | 1019.0 | |
| 20260508041016 | 12 | 0.0 | 0.0 | 0.00 | 0.15 | 0.15 | 50 | 1019.2 | |
| 20260508040017 | 13 | 0.0 | 0.0 | 0.00 | 0.15 | 0.15 | 50 | 1019.1 | |
| 20260508035015 | 13 | 0.0 | 0.0 | 0.00 | 0.15 | 0.15 | 49 | 1019.1 | |
| 20260508034115 | 13 | 0.0 | 0.0 | 0.00 | 0.15 | 0.15 | 48 | 1019.0 | |
| 20260508033015 | 13 | 199 | 0.0 | 1.6 | 0.00 | 0.15 | 0.15 | 47 | 1019.1 |
| 20260508032036 | 13 | 125 | 0.0 | 3.2 | 0.00 | 0.15 | 0.15 | 48 | 1019.1 |
| 20260508031016 | 13 | 236 | 0.0 | 1.6 | 0.00 | 0.15 | 0.15 | 47 | 1019.5 |
| 20260508030017 | 13 | 231 | 0.0 | 1.6 | 0.00 | 0.15 | 0.15 | 46 | 1019.1 |
| 20260508025017 | 13 | 0.0 | 0.0 | 0.00 | 0.15 | 0.15 | 46 | 1018.8 | |
| 20260508024014 | 14 | 258 | 0.0 | 1.6 | 0.00 | 0.15 | 0.15 | 45 | 1018.7 |
| 20260508023015 | 15 | 210 | 0.0 | 1.6 | 0.00 | 0.15 | 0.15 | 44 | 1018.5 |
| 20260508022035 | 14 | 354 | 1.6 | 11.3 | 0.00 | 0.15 | 0.15 | 44 | 1018.6 |
| 20260508021016 | 14 | 0.0 | 0.0 | 0.00 | 0.15 | 0.15 | 46 | 1018.3 | |
| 20260508020016 | 15 | 0.0 | 0.0 | 0.00 | 0.15 | 0.15 | 44 | 1017.9 | |
| 20260508015016 | 15 | 0.0 | 0.0 | 0.00 | 0.15 | 0.15 | 44 | 1017.7 | |
| 20260508014017 | 15 | 0.0 | 0.0 | 0.00 | 0.15 | 0.15 | 42 | 1017.5 | |
| 20260508013015 | 16 | 0.0 | 0.0 | 0.00 | 0.15 | 0.15 | 40 | 1017.4 | |
| 20260508012015 | 16 | 0.0 | 0.0 | 0.00 | 0.18 | 0.15 | 39 | 1017.3 | |
| 20260508011015 | 16 | 0.0 | 0.0 | 0.00 | 0.18 | 0.15 | 37 | 1017.2 | |
| 20260508010016 | 16 | 0.0 | 0.0 | 0.00 | 0.18 | 0.15 | 38 | 1017.1 | |
| 20260508005016 | 16 | 81 | 0.0 | 1.6 | 0.00 | 0.18 | 0.15 | 36 | 1017.3 |
| 20260508004037 | 16 | 0.0 | 0.0 | 0.00 | 0.20 | 0.15 | 36 | 1017.3 | |
| 20260508003017 | 16 | 0.0 | 0.0 | 0.00 | 0.20 | 0.15 | 36 | 1017.2 | |
| 20260508002015 | 16 | 83 | 0.0 | 6.4 | 0.00 | 0.23 | 0.15 | 34 | 1017.2 |
| 20260508001015 | 17 | 269 | 0.0 | 1.6 | 0.00 | 0.23 | 0.15 | 34 | 1017.2 |
| 20260508000015 | 17 | 269 | 0.0 | 1.6 | 0.00 | 0.23 | 0.15 | 34 | 1017.4 |
| 20260507235016 | 17 | 0.0 | 0.0 | 0.00 | 0.25 | 0.15 | 35 | 1017.3 | |
| 20260507234017 | 16 | 269 | 0.0 | 1.6 | 0.00 | 0.28 | 0.15 | 35 | 1017.4 |
| 20260507233017 | 17 | 0.0 | 0.0 | 0.00 | 0.30 | 0.15 | 34 | 1017.4 | |
| 20260507232017 | 17 | 267 | 0.0 | 1.6 | 0.00 | 0.33 | 0.15 | 33 | 1017.5 |
| 20260507231015 | 17 | 0.0 | 0.0 | 0.00 | 0.36 | 0.15 | 33 | 1017.5 | |
| 20260507230015 | 18 | 233 | 0.0 | 1.6 | 0.00 | 0.41 | 0.15 | 32 | 1017.6 |
| 20260507225036 | 18 | 229 | 0.0 | 1.6 | 0.00 | 0.43 | 0.15 | 31 | 1017.6 |
| 20260507224016 | 20 | 248 | 0.0 | 1.6 | 0.00 | 0.46 | 0.15 | 30 | 1017.7 |
| 20260507223037 | 21 | 237 | 0.0 | 3.2 | 0.00 | 0.48 | 0.15 | 30 | 1017.7 |
| 20260507222017 | 20 | 246 | 0.0 | 1.6 | 0.00 | 0.51 | 0.15 | 31 | 1017.8 |
| 20260507221014 | 20 | 115 | 1.6 | 3.2 | 0.00 | 0.53 | 0.15 | 31 | 1017.9 |
| 20260507220015 | 20 | 199 | 1.6 | 3.2 | 0.00 | 0.56 | 0.15 | 30 | 1018.1 |
| 20260507215036 | 21 | 307 | 0.0 | 6.4 | 0.00 | 0.61 | 0.15 | 30 | 1018.2 |
| 20260507214036 | 20 | 83 | 1.6 | 6.4 | 0.00 | 0.61 | 0.15 | 29 | 1018.3 |
| 20260507213016 | 21 | 125 | 3.2 | 11.3 | 0.00 | 0.66 | 0.15 | 29 | 1018.3 |
| 20260507212016 | 20 | 204 | 1.6 | 11.3 | 0.00 | 0.71 | 0.15 | 30 | 1018.4 |
| 20260507211017 | 19 | 56 | 0.0 | 6.4 | 0.00 | 0.71 | 0.15 | 31 | 1018.5 |
| 20260507210015 | 20 | 145 | 1.6 | 4.8 | 0.00 | 0.76 | 0.15 | 31 | 1018.6 |
| 20260507205015 | 22 | 196 | 1.6 | 8.0 | 0.00 | 0.79 | 0.15 | 29 | 1018.6 |
| 20260507204036 | 21 | 250 | 1.6 | 4.8 | 0.00 | 0.86 | 0.15 | 30 | 1018.7 |
| 20260507203036 | 20 | 223 | 1.6 | 3.2 | 0.00 | 0.89 | 0.15 | 31 | 1018.8 |
| 20260507202016 | 20 | 174 | 3.2 | 9.7 | 0.00 | 0.97 | 0.15 | 30 | 1019.0 |
| 20260507201016 | 20 | 143 | 1.6 | 6.4 | 0.00 | 1.02 | 0.15 | 30 | 1019.2 |
| 20260507200017 | 20 | 150 | 1.6 | 4.8 | 0.00 | 1.09 | 0.15 | 31 | 1019.3 |
| 20260507195015 | 20 | 28 | 1.6 | 3.2 | 0.00 | 1.09 | 0.15 | 31 | 1019.5 |
| 20260507194015 | 19 | 287 | 1.6 | 6.4 | 0.00 | 1.12 | 0.15 | 32 | 1019.6 |
| 20260507193016 | 19 | 206 | 3.2 | 14.5 | 0.00 | 1.12 | 0.15 | 32 | 1019.6 |
| 20260507192016 | 18 | 230 | 3.2 | 8.0 | 0.00 | 1.12 | 0.15 | 34 | 1019.6 |
| 20260507191016 | 18 | 227 | 4.8 | 12.9 | 0.00 | 1.14 | 0.15 | 32 | 1019.7 |
| 20260507190017 | 18 | 240 | 3.2 | 12.9 | 0.00 | 1.14 | 0.15 | 35 | 1019.8 |
| 20260507185018 | 17 | 226 | 3.2 | 11.3 | 0.00 | 1.14 | 0.15 | 37 | 1019.8 |
| 20260507184035 | 17 | 242 | 4.8 | 12.9 | 0.00 | 1.14 | 0.15 | 37 | 1020.1 |
| 20260507183016 | 17 | 232 | 3.2 | 9.7 | 0.00 | 1.17 | 0.15 | 37 | 1020.2 |
| 20260507182016 | 16 | 266 | 3.2 | 8.0 | 0.00 | 1.17 | 0.15 | 38 | 1020.3 |
| 20260507181016 | 16 | 252 | 3.2 | 11.3 | 0.03 | 1.17 | 0.15 | 39 | 1020.2 |
| 20260507180057 | 15 | 273 | 3.2 | 6.4 | 0.03 | 1.17 | 0.15 | 41 | 1020.3 |
| 20260507175017 | 15 | 267 | 3.2 | 12.9 | 0.03 | 1.17 | 0.15 | 41 | 1020.2 |
| 20260507174034 | 15 | 135 | 1.6 | 4.8 | 0.05 | 1.17 | 0.15 | 41 | 1020.4 |
| 20260507173015 | 15 | 132 | 3.2 | 6.4 | 0.05 | 1.17 | 0.15 | 41 | 1020.6 |
| 20260507172015 | 15 | 189 | 1.6 | 11.3 | 0.05 | 1.17 | 0.15 | 42 | 1020.6 |
| 20260507171016 | 14 | 138 | 1.6 | 6.4 | 0.05 | 1.17 | 0.15 | 43 | 1020.8 |
| 20260507170016 | 13 | 130 | 1.6 | 12.9 | 0.05 | 1.17 | 0.15 | 45 | 1020.9 |
| 20260507165016 | 13 | 130 | 1.6 | 6.4 | 0.08 | 1.17 | 0.15 | 46 | 1021.1 |
| 20260507164017 | 12 | 129 | 1.6 | 4.8 | 0.05 | 1.14 | 0.13 | 46 | 1021.1 |
| 20260507163015 | 12 | 121 | 1.6 | 6.4 | 0.10 | 1.14 | 0.13 | 45 | 1021.2 |
| 20260507162035 | 12 | 278 | 1.6 | 6.4 | 0.08 | 1.12 | 0.10 | 47 | 1021.3 |
| 20260507161035 | 12 | 137 | 3.2 | 9.7 | 0.08 | 1.12 | 0.10 | 48 | 1021.4 |
| 20260507160016 | 11 | 154 | 1.6 | 8.0 | 0.08 | 1.09 | 0.08 | 48 | 1021.5 |
| 20260507155037 | 11 | 134 | 1.6 | 6.4 | 0.05 | 1.09 | 0.05 | 49 | 1021.5 |
| 20260507154016 | 10 | 134 | 1.6 | 6.4 | 0.05 | 1.09 | 0.05 | 49 | 1021.6 |
| 20260507153017 | 10 | 135 | 1.6 | 6.4 | 0.03 | 1.04 | 0.03 | 49 | 1021.6 |
| 20260507152055 | 9 | 138 | 1.6 | 6.4 | 0.03 | 1.04 | 0.03 | 50 | 1021.6 |
| 20260507151015 | 8 | 137 | 3.2 | 9.7 | 0.03 | 1.04 | 0.03 | 50 | 1021.5 |
| 20260507150016 | 8 | 131 | 1.6 | 4.8 | 0.00 | 1.02 | 0.00 | 50 | 1021.5 |